Location: 22
(39.7117°N, 89.5929°W)
Time: 11:56:27
(UTC-05:00)

Vanguard 1 - Pass Details

Date: 10 August 2025
Orbit: 654 x 3818 km, 34.2° (Epoch: 18 April)

Event Time Altitude Azimuth Distance (km) Brightness Sun altitude
Rises 22:24:49 0° 266° (W) 7,251 15.0 -23.8°
Reaches altitude 10° 22:30:20 10° 264° (W) 5,812 14.4 -24.5°
Maximum altitude 22:45:58 67° 187° (S) 1,980 11.3 -26.4°
Enters shadow 22:49:18 45° 125° (SE) 2,074 11.2 -26.8°
Drops below altitude 10° 22:54:12 10° 107° (ESE) 3,229 - -27.4°
Sets 22:56:24 0° 104° (ESE) 3,934 - -27.6°
